Weather History for Zanesville, OH

Change the Weather History Date:

Tuesday, March 19, 2013

  Actual Average Record
Temperature  
Mean Temperature 37 °F 42 °F  
Max Temperature 42 °F 53 °F 79 °F (2012)
Min Temperature 32 °F 31 °F 14 °F (1964)
Degree Days  
Heating Degree Days 28 23  
Month to date heating degree days 540 500  
Since 1 July heating degree days 4671 4691  
Cooling Degree Days 0 0  
Month to date cooling degree days 0 0  
Year to date cooling degree days 0 0  
Moisture  
Dew Point 24 °F    
Average Humidity 63    
Maximum Humidity 82    
Minimum Humidity 44    
Precipitation  
Precipitation T in 0.10 in 1.56 in (1963)
Month to date precipitation 1.80 1.72  
Year to date precipitation 6.28 6.55  
Sea Level Pressure  
Sea Level Pressure 29.88 in    
Wind  
Wind Speed 16 mph (West)    
Max Wind Speed 30 mph    
Max Gust Speed 48 mph    
Visibility 10 miles    
Events Rain    
T = Trace of Precipitation, MM = Missing Value Source: NWS Daily Summary

Daily Weather History Graph

Daily Weather History Graph

Search for Another Location

Airport:

Trip Planner

Search our weather history database for the weather conditions in past years. The results will help you decide how hot, cold, wet, or windy it might be!

Date:

Astronomy

Mar. 19, 2013 Rise Set
Actual Time 7:32 AM EDT 7:38 PM EDT
Civil Twilight 7:05 AM EDT 8:05 PM EDT
Nautical Twilight 6:33 AM EDT 8:37 PM EDT
Astronomical Twilight 6:01 AM EDT 9:09 PM EDT
Moon 12:21 PM EDT (3/19) 2:24 AM EDT (3/19)
Length of Visible Light 13h 00m
Length of Day
12h 06m
Waxing Crescent, 49% of the Moon is Illuminated
Mar 19
Waxing Crescent
Mar 19
First Quarter
Mar 27
Full
Apr 3
Last Quarter
Apr 10
New

Hourly Weather History & Observations

Time (EDT) Temp. Windchill Dew Point Humidity Pressure Visibility Wind Dir Wind Speed Gust Speed Precip Events Conditions
12:53 AM 42.1 °F 36.6 °F 37.9 °F 85% 29.76 in 10.0 mi West 9.2 mph - N/A   Overcast
1:53 AM 39.0 °F 30.3 °F 34.0 °F 82% 29.78 in 10.0 mi West 16.1 mph 24.2 mph 0.00 in Rain Light Rain
2:22 AM 39.2 °F 32.5 °F 32.0 °F 75% 29.78 in 10.0 mi West 10.4 mph - 0.00 in   Overcast
2:53 AM 39.0 °F 32.8 °F 30.9 °F 73% 29.80 in 10.0 mi West 9.2 mph - 0.00 in   Overcast
3:03 AM 39.2 °F 33.0 °F 30.2 °F 70% 29.79 in 10.0 mi WSW 9.2 mph - N/A   Overcast
3:23 AM 39.2 °F 30.8 °F 30.2 °F 70% 29.80 in 10.0 mi West 15.0 mph 20.7 mph N/A   Overcast
3:53 AM 39.0 °F 30.6 °F 28.9 °F 67% 29.82 in 10.0 mi West 15.0 mph 23.0 mph N/A   Overcast
4:53 AM 39.0 °F 32.3 °F 28.9 °F 67% 29.82 in 10.0 mi SW 10.4 mph - N/A   Overcast
5:53 AM 37.9 °F 30.9 °F 28.9 °F 70% 29.82 in 10.0 mi SW 10.4 mph 17.3 mph N/A   Overcast
6:53 AM 37.9 °F 29.2 °F 28.9 °F 70% 29.83 in 10.0 mi WSW 15.0 mph 26.5 mph N/A   Overcast
7:53 AM 37.0 °F 29.3 °F 27.0 °F 67% 29.83 in 10.0 mi WSW 11.5 mph 29.9 mph N/A   Mostly Cloudy
8:35 AM 35.6 °F 25.9 °F 26.6 °F 70% 29.83 in 10.0 mi West 16.1 mph 24.2 mph N/A   Overcast
8:53 AM 34.0 °F 23.8 °F 27.0 °F 75% 29.85 in 10.0 mi West 16.1 mph 23.0 mph N/A   Mostly Cloudy
9:53 AM 36.0 °F 25.6 °F 26.1 °F 67% 29.85 in 10.0 mi WSW 18.4 mph 26.5 mph N/A   Mostly Cloudy
10:19 AM 35.6 °F 24.0 °F 23.0 °F 60% 29.85 in 10.0 mi West 23.0 mph 31.1 mph N/A   Scattered Clouds
10:53 AM 35.1 °F 24.1 °F 23.0 °F 61% 29.88 in 10.0 mi West 19.6 mph 29.9 mph N/A   Mostly Cloudy
11:53 AM 33.1 °F 21.2 °F 21.0 °F 61% 29.90 in 10.0 mi WSW 20.7 mph 38.0 mph N/A   Scattered Clouds
12:53 PM 35.1 °F 24.1 °F 21.0 °F 57% 29.91 in 10.0 mi WSW 19.6 mph 31.1 mph N/A   Overcast
1:53 PM 36.0 °F 25.0 °F 21.9 °F 57% 29.91 in 10.0 mi West 20.7 mph 31.1 mph N/A   Overcast
2:53 PM 36.0 °F 24.7 °F 19.9 °F 52% 29.92 in 10.0 mi WSW 21.9 mph 35.7 mph N/A   Overcast
3:53 PM 37.0 °F 26.2 °F 21.0 °F 52% 29.92 in 10.0 mi West 21.9 mph 33.4 mph N/A   Overcast
4:53 PM 37.9 °F 26.3 °F 19.9 °F 48% 29.94 in 10.0 mi West 26.5 mph 36.8 mph N/A   Overcast
5:53 PM 37.9 °F 27.1 °F 19.0 °F 47% 29.96 in 10.0 mi West 23.0 mph 31.1 mph N/A   Overcast
6:53 PM 37.0 °F 25.6 °F 17.1 °F 44% 29.97 in 10.0 mi West 24.2 mph 36.8 mph N/A   Partly Cloudy
7:53 PM 35.1 °F 25.9 °F 17.1 °F 48% 29.99 in 10.0 mi WNW 13.8 mph - N/A   Clear
8:53 PM 35.1 °F 26.4 °F 16.0 °F 46% 30.01 in 10.0 mi West 12.7 mph - N/A   Clear
9:53 PM 34.0 °F 26.6 °F 16.0 °F 48% 30.02 in 10.0 mi West 9.2 mph - N/A   Clear
10:53 PM 33.1 °F 24.9 °F 16.0 °F 50% 30.02 in 10.0 mi West 10.4 mph 21.9 mph N/A   Clear
11:53 PM 33.1 °F 23.9 °F 16.0 °F 50% 30.03 in 10.0 mi West 12.7 mph - N/A   Clear